This demonstration page uses our WeatherBlox Daily Observations layout. Learn more.

Left ArrowRight Arrow

40.92945, -100.16068

Hourly Observations for October 3, 2016

Temp ( °F °C ) Dew Point ( °F °C ) Humidity (%) Winds ( mph kmh ) Pressure ( in mb ) Visibility ( mi km ) Precip ( " mm )
12:15 am 00:15 Mostly Cloudy 65 18.5 55 12.6 69 69 SE 10 17 29.91 1013 10 16 N/A
12:35 am 00:35 Cloudy 65 18.3 55 12.6 70 70 SE 9 15 29.91 1013 10 16 N/A
12:55 am 00:55 Mostly Cloudy 65 18.1 55 12.6 70 70 SE 10 17 29.91 1013 10 16 N/A
1:15 am 01:15 Mostly Cloudy 64 17.7 55 12.6 72 72 SE 9 15 29.91 1013 10 16 N/A
1:35 am 01:35 Partly Cloudy 64 17.5 55 12.6 73 73 SE 10 17 29.91 1013 10 16 N/A
1:55 am 01:55 Mostly Cloudy 63 17.1 55 12.5 75 75 SE 9 15 29.91 1013 10 16 N/A
2:15 am 02:15 Partly Cloudy 61 16.2 54 12.3 78 78 SE 8 13 29.91 1013 10 16 N/A
2:35 am 02:35 Clear 60 15.7 54 12.3 80 80 ESE 9 15 29.91 1013 10 16 N/A
2:55 am 02:55 Clear 60 15.3 54 12.1 81 81 ESE 9 15 29.91 1013 10 16 N/A
3:15 am 03:15 Clear 59 15 54 12.1 83 83 ESE 8 13 29.91 1013 10 16 N/A
3:35 am 03:35 Clear 59 15.1 54 12.1 82 82 SE 8 13 29.88 1012 10 16 N/A
3:55 am 03:55 Clear 60 15.7 54 12.2 80 80 SE 10 17 29.85 1011 10 16 N/A
4:15 am 04:15 Clear 60 15.3 54 12 81 81 SE 7 11 29.88 1012 10 16 N/A
4:35 am 04:35 Mostly Cloudy 60 15.3 54 12 81 81 SE 8 13 29.88 1012 10 16 N/A
4:55 am 04:55 Mostly Cloudy 59 15.1 54 12 82 82 SE 8 13 29.88 1012 10 16 N/A
5:15 am 05:15 Clear 58 14.6 53 11.9 84 84 ESE 6 9 29.88 1012 10 16 N/A
5:35 am 05:35 Mostly Cloudy 59 15 54 12.2 83 83 SE 7 11 29.88 1012 10 16 N/A
5:55 am 05:55 Cloudy 60 15.8 54 12.1 79 79 SE 9 15 29.85 1011 10 16 N/A
6:15 am 06:15 Partly Cloudy 60 15.6 54 12 79 79 SE 12 19 29.83 1010 10 16 N/A
6:35 am 06:35 Clear 60 15.3 54 12 81 81 SE 12 19 29.83 1010 10 16 N/A
6:55 am 06:55 Partly Cloudy 60 15.3 54 12 81 81 SE 12 19 29.83 1010 10 16 N/A
7:15 am 07:15 Partly Cloudy 59 15 53 11.8 81 81 SE 12 19 29.85 1011 10 16 N/A
7:35 am 07:35 Clear 59 14.8 53 11.9 83 83 SE 12 19 29.83 1010 10 16 N/A
7:55 am 07:55 Sunny 59 15 54 12 82 82 SE 12 19 29.80 1009 10 16 N/A
8:15 am 08:15 Sunny 59 15.2 54 12 81 81 SE 13 20 29.80 1009 10 16 N/A
8:35 am 08:35 Sunny 61 15.9 54 12.2 79 79 SE 12 19 29.77 1008 10 16 N/A
8:55 am 08:55 Sunny 62 16.4 54 12.3 77 77 SSE 14 22 29.77 1008 10 16 N/A
9:15 am 09:15 Partly Cloudy 63 17.2 54 12.4 74 74 SE 18 30 29.77 1008 10 16 N/A
9:35 am 09:35 Partly Cloudy 64 17.5 54 12.4 72 72 SE 14 22 29.74 1007 10 16 N/A
9:55 am 09:55 Sunny 64 18 55 12.5 70 70 SSE 17 28 29.71 1006 10 16 N/A
10:15 am 10:15 Sunny 65 18.6 55 12.7 69 69 SSE 18 30 29.71 1006 10 16 N/A
10:35 am 10:35 Partly Cloudy 66 18.7 55 12.8 69 69 SE 18 30 29.71 1006 10 16 N/A
10:55 am 10:55 Partly Cloudy 65 18.6 55 13 70 70 SE 18 30 29.71 1006 10 16 N/A
11:15 am 11:15 Partly Cloudy 66 18.7 55 13 70 70 SE 16 26 29.68 1005 10 16 N/A
11:35 am 11:35 Sunny 68 19.9 55 13 65 65 SSE 22 35 29.68 1005 10 16 N/A
11:55 am 11:55 Sunny 70 20.9 56 13.1 61 61 SE 22 35 29.65 1004 10 16 N/A
12:15 pm 12:15 Sunny 72 22.4 55 13 55 55 SE 26 43 29.62 1003 10 16 N/A
12:35 pm 12:35 Sunny 75 23.9 56 13.4 52 52 SSE 25 41 29.56 1001 10 16 N/A
12:55 pm 12:55 Sunny 76 24.6 57 14 52 52 SSE 30 48 29.56 1001 10 16 N/A
1:15 pm 13:15 Sunny 75 23.9 57 13.8 53 53 SSE 29 46 29.56 1001 10 16 N/A
1:35 pm 13:35 Partly Cloudy 75 23.8 56 13.5 53 53 SSE 31 50 29.56 1001 10 16 N/A
1:55 pm 13:55 Partly Cloudy 74 23.5 56 13.3 53 53 SSE 31 50 29.53 1000 10 16 N/A
2:15 pm 14:15 Sunny 76 24.2 56 13.5 51 51 SE 31 50 29.53 1000 10 16 N/A
2:35 pm 14:35 Sunny 75 24 56 13.6 52 52 SSE 35 56 29.53 1000 10 16 N/A
2:55 pm 14:55 Sunny 76 24.6 56 13.4 50 50 SSE 35 56 29.50 999 10 16 N/A
3:15 pm 15:15 Sunny 75 24 56 13.4 52 52 SSE 32 52 29.50 999 10 16 N/A
3:35 pm 15:35 Partly Cloudy 77 25.1 56 13.1 47 47 SSE 32 52 29.50 999 10 16 N/A
3:55 pm 15:55 Mostly Cloudy 79 25.9 55 12.9 45 45 SE 32 52 29.47 998 10 16 N/A
4:15 pm 16:15 Mostly Cloudy 79 26 55 12.7 44 44 SSE 33 54 29.47 998 10 16 N/A
4:35 pm 16:35 Cloudy 80 26.6 55 12.7 42 42 SSE 30 48 29.44 997 10 16 N/A
4:55 pm 16:55 Mostly Cloudy 79 25.9 54 12.4 43 43 SSE 36 57 29.47 998 10 16 N/A
5:15 pm 17:15 Partly Cloudy 77 25.1 54 12.1 44 44 SSE 33 54 29.44 997 10 16 N/A
5:35 pm 17:35 Sunny 78 25.6 54 12.1 43 43 SSE 35 56 29.44 997 10 16 N/A
5:55 pm 17:55 Partly Cloudy 77 25 53 11.7 43 43 SSE 28 44 29.44 997 10 16 N/A
6:15 pm 18:15 Sunny 76 24.7 53 11.7 44 44 SSE 24 39 29.44 997 10 16 N/A
6:35 pm 18:35 Partly Cloudy 76 24.5 52 11.3 44 44 SE 25 41 29.44 997 10 16 N/A
6:55 pm 18:55 Sunny 75 24 52 11.1 44 44 SE 29 46 29.44 997 10 16 N/A
7:15 pm 19:15 Sunny 75 23.7 52 11.1 45 45 SE 23 37 29.44 997 10 16 N/A
7:35 pm 19:35 Clear 74 23.5 52 11 45 45 SSE 26 43 29.41 996 10 16 N/A
7:55 pm 19:55 Clear 74 23.2 51 10.6 45 45 SE 24 39 29.41 996 10 16 N/A
8:15 pm 20:15 Clear 73 23 52 10.9 47 47 SSE 28 44 29.44 997 10 16 N/A
8:35 pm 20:35 Clear 73 22.7 52 11 48 48 SE 26 43 29.41 996 10 16 N/A
8:55 pm 20:55 Clear 73 22.5 52 11.1 49 49 SE 26 43 29.41 996 10 16 N/A
9:15 pm 21:15 Clear 72 22.4 52 11.3 50 50 SSE 32 52 29.41 996 10 16 N/A
9:35 pm 21:35 Clear 72 22 53 11.5 51 51 SSE 29 46 29.44 997 10 16 N/A
9:55 pm 21:55 Clear 72 22 53 11.4 51 51 SSE 29 46 29.38 995 10 16 N/A
10:15 pm 22:15 Clear 71 21.7 52 11.1 51 51 SSE 31 50 29.41 996 10 16 N/A
10:35 pm 22:35 Clear 71 21.6 52 11.1 51 51 SSE 28 44 29.41 996 10 16 N/A
10:55 pm 22:55 Clear 71 21.6 52 11.1 51 51 SSE 31 50 29.41 996 10 16 N/A
11:15 pm 23:15 Clear 71 21.5 52 11 51 51 S 33 54 29.44 997 10 16 N/A
11:35 pm 23:35 Clear 70 21.3 52 11.1 52 52 S 32 52 29.44 997 10 16 N/A
11:55 pm 23:55 Clear 70 21.3 52 11.1 52 52 S 23 37 29.47 998 10 16 N/A

Powered by AerisWeather